Tracking 27079 objects as of 23-Mar-2023
HD Live streaming from Space Station
objects crossing your sky now

SHIYAN 22A (SY-22A)

Track SHIYAN 22A (SY-22A) now!
10-day predictions


NORAD ID: 55242
Int'l Code: 2023-006A
Perigee: 503.5 km
Apogee: 519.9 km
Inclination: 43.2 °
Period: 94.7 minutes
Semi major axis: 6882 km
RCS: Unknown
Launch date: January 13, 2023
Source: People's Republic of China (PRC)
Launch site: Jiuquan Satellite Launch Center, China (JSC)
Your satellite tracking list
Your tracking list is empty




NASA's NSSDC Master Catalog

Two Line Element Set (TLE):
1 55242U 23006A   23081.78104453  .00030577  00000-0  13793-2 0  9992
2 55242  43.2015 186.1648 0011940 358.1241 139.1831 15.20417245 10411
Source of the keplerian elements: AFSPC